M.P.E.C. 2006-N16 Issued 2006 July 7, 18:36 UT The Minor Planet Electronic Circulars contain information on unusual minor planets and routine data on comets. They are published on behalf of Commission 20 of the International Astronomical Union by the Minor Planet Center, Smithsonian Astrophysical Observatory, Cambridge, MA 02138, U.S.A. Supported in part by the Brinson Foundation Supported in part by the TABASGO Foundation Prepared using the Tamkin Foundation Computer Network MPC@CFA.HARVARD.EDU URL http://cfa-www.harvard.edu/iau/mpc.html ISSN 1523-6714 COMET P/1889 M1 = 2006 M3 (BARNARD) Observations: PK06M030 C2006 06 25.97310 17 39 26.21 -24 41 15.2 17.2 N EN016130 PK06M030 C2006 06 25.98362 17 39 25.15 -24 40 33.9 17.0 N EN016130 PK06M030 2006 06 28.63056 17 35 12.67 -21 41 10.7 17.0 T EN016372 PK06M030 C2006 06 29.32036 17 34 05.85 -20 51 34.4 14.7 N EN016H06 PK06M030 C2006 06 29.32764 17 34 05.18 -20 51 00.3 15.9 N EN016H06 PK06M030 C2006 06 29.53641 17 33 45.76 -20 35 47.2 EN016D88 PK06M030 C2006 06 29.53821 17 33 45.65 -20 35 37.9 EN016D88 PK06M030 C2006 06 29.54000 17 33 45.38 -20 35 31.1 15.9 T EN016D88 PK06M030 C2006 06 29.91225 17 33 09.62 -20 08 00.1 15.8 N EN016J97 PK06M030 C2006 06 29.91550 17 33 09.24 -20 07 46.4 15.6 N EN016J97 PK06M030 C2006 06 30.29984 17 32 31.41 -19 39 00.8 16.1 N EN016H06 PK06M030 C2006 06 30.30744 17 32 30.59 -19 38 26.1 15.9 N EN016H06 PK06M030 C2006 06 30.36686 17 32 24.44 -19 33 56.1 15.6 T EN016H06 PK06M030 C2006 06 30.36791 17 32 24.31 -19 33 51.8 15.4 T EN016H06 PK06M030 C2006 06 30.36895 17 32 24.22 -19 33 47.2 15.5 T EN016H06 PK06M030 C2006 06 30.91191 17 31 32.76 -18 52 30.4 15.3 N EN016213 PK06M030 C2006 06 30.91543 17 31 32.37 -18 52 13.5 15.3 N EN016213 PK06M030 C2006 06 30.91631 17 31 32.27 -18 52 09.3 15.3 N EN016213 PK06M030 C2006 06 30.95531 17 31 28.27 -18 49 10.6 16.3 N EN016232 PK06M030 C2006 06 30.95762 17 31 28.02 -18 48 59.5 16.4 N EN016232 PK06M030 C2006 06 30.95961 17 31 27.83 -18 48 50.0 16.4 N EN016232 PK06M030 C2006 06 30.95963 17 31 27.69 -18 48 50.8 16.3 N EN016215 PK06M030 C2006 06 30.96015 17 31 27.64 -18 48 48.3 16.3 N EN016215 PK06M030 C2006 06 30.96068 17 31 27.58 -18 48 45.8 16.3 N EN016215 PK06M030 C2006 06 30.96727 17 31 26.93 -18 48 16.0 15.8 N EN016A18 PK06M030 C2006 06 30.98974 17 31 24.77 -18 46 30.2 15.3 N EN016J76 PK06M030 C2006 06 30.99118 17 31 24.62 -18 46 23.3 15.3 N EN016J76 PK06M030 C2006 06 30.99407 17 31 24.31 -18 46 10.0 15.3 N EN016J76 PK06M030 C2006 07 01.00127 17 31 23.56 -18 45 37.4 15.6 N EN016939 PK06M030 C2006 07 01.00773 17 31 22.86 -18 45 07.6 15.5 N EN016939 PK06M030 C2006 07 01.01050 17 31 22.57 -18 44 54.7 15.6 N EN016939 PK06M030 C2006 07 01.87522 17 29 59.62 -17 37 24.4 16.1 N EN016151 PK06M030 C2006 07 01.87583 17 29 59.54 -17 37 21.5 16.2 N EN016151 PK06M030 C2006 07 01.87645 17 29 59.48 -17 37 18.8 16.2 N EN016151 PK06M030 C2006 07 01.87704 17 29 59.42 -17 37 16.2 16.1 N EN016151 PK06M030 C2006 07 01.87825 17 29 59.30 -17 37 10.9 16.1 N EN016151 PK06M030 C2006 07 01.96903 17 29 49.97 -17 30 00.3 15.4 N EN016A18 PK06M030 C2006 07 02.23643 17 29 24.38 -17 08 44.1 16.8 T EN016704 PK06M030 C2006 07 02.24688 17 29 23.55 -17 07 48.9 16.9 T EN016704 PK06M030 C2006 07 02.25737 17 29 22.36 -17 06 59.8 17.2 T EN016704 PK06M030 C2006 07 02.92601 17 28 17.97 -16 12 56.2 15.1 N EN016213 PK06M030 C2006 07 02.92656 17 28 17.90 -16 12 53.5 15.1 N EN016213 PK06M030 C2006 07 02.92740 17 28 17.81 -16 12 49.4 15.1 N EN016213 PK06M030 2006 07 03.55417 17 27 17.51 -15 21 11.0 16.5 T EN016372 PK06M030 2006 07 03.56111 17 27 16.75 -15 20 36.6 EN016372 PK06M030 2006 07 03.56910 17 27 15.89 -15 19 55.6 EN016372 PK06M030 2006 07 03.58021 17 27 14.76 -15 18 59.9 EN016372 PK06M030 2006 07 03.60556 17 27 12.21 -15 16 54.7 EN016372 PK06M030 C2006 07 03.86426 17 26 48.08 -14 55 20.3 16.1 T EN016170 PK06M030 C2006 07 03.86685 17 26 47.80 -14 55 07.2 16.6 T EN016170 PK06M030 C2006 07 03.87519 17 26 46.95 -14 54 25.5 16.5 T EN016170 PK06M030 C2006 07 03.90008 17 26 44.40 -14 52 19.4 15.4 N EN016J97 PK06M030 C2006 07 03.90171 17 26 44.31 -14 52 12.4 15.2 N EN016J97 PK06M030 C2006 07 03.90333 17 26 44.19 -14 52 03.0 15.3 N EN016J97 PK06M030 C2006 07 03.90497 17 26 43.93 -14 51 55.6 15.4 N EN016J97 PK06M030 C2006 07 03.91509 17 26 42.82 -14 51 04.8 15.3 N EN016213 PK06M030 C2006 07 03.91911 17 26 42.42 -14 50 44.5 15.3 N EN016213 PK06M030 C2006 07 03.91947 17 26 42.16 -14 50 43.4 EN016046 PK06M030 C2006 07 03.91975 17 26 42.34 -14 50 41.4 15.3 N EN016213 PK06M030 C2006 07 03.92044 17 26 42.08 -14 50 38.6 EN016046 PK06M030 C2006 07 03.92238 17 26 41.86 -14 50 29.4 EN016046 PK06M030 C2006 07 03.93296 17 26 40.97 -14 49 36.5 EN016J70 PK06M030 C2006 07 03.93338 17 26 41.08 -14 49 28.8 EN016J70 PK06M030 C2006 07 03.93381 17 26 41.44 -14 49 21.2 EN016J70 PK06M030 C2006 07 03.93594 17 26 40.41 -14 49 18.6 EN016J70 PK06M030 C2006 07 04.91759 17 25 06.97 -13 25 52.5 15.3 N EN016J59 PK06M030 C2006 07 04.91925 17 25 06.83 -13 25 44.1 15.2 N EN016J59 PK06M030 C2006 07 05.37260 17 24 24.07 -12 46 02.2 16.5 N EN016467 PK06M030 C2006 07 05.37679 17 24 23.64 -12 45 40.2 16.7 N EN016467 PK06M030 C2006 07 05.38093 17 24 23.21 -12 45 18.9 16.3 N EN016467 PK06M030 C2006 07 05.89865 17 23 34.01 -12 00 23.7 15.1 N EN016J97 PK06M030 C2006 07 05.90030 17 23 33.73 -12 00 16.6 15.0 N EN016J97 PK06M030 C2006 07 05.91875 17 23 31.90 -11 58 38.7 15.2 N EN016939 PK06M030 C2006 07 05.92059 17 23 31.71 -11 58 28.4 15.2 N EN016939 PK06M030 C2006 07 05.92243 17 23 31.53 -11 58 18.3 15.2 N EN016939 PK06M030 C2006 07 05.95331 17 23 28.40 -11 55 36.1 14.9 N EN016445 PK06M030 C2006 07 05.95416 17 23 28.31 -11 55 32.4 15.0 N EN016445 PK06M030 C2006 07 05.95693 17 23 28.09 -11 55 17.4 14.9 N EN016445 PK06M030 C2006 07 05.95777 17 23 27.99 -11 55 13.3 15.0 N EN016445 PK06M030 C2006 07 07.33579 17 21 17.84 -09 51 42.1 17.5 N EN016H45 PK06M030 C2006 07 07.33653 17 21 17.77 -09 51 38.1 17.5 N EN016H45 PK06M030 C2006 07 07.33721 17 21 17.69 -09 51 34.2 16.1 T EN016H45 PK06M030 C2006 07 07.34078 17 21 17.37 -09 51 14.8 16.0 T EN016H45 Observer details: 046 Klet. Observers M. Tichy, M. Kiriakov. Measurer M. Tichy. 0.57-m f/5.2 reflector + CCD. 130 Lumezzane. Observers M. Casali, W. Marinello, M. Micheli, G. Pizzetti, A. Soffiantini. Measurers W. Marinello, M. Micheli. 0.40-m f/4.5 reflector + CCD. 151 Eschenberg Observatory, Winterthur. Observer M. Griesser. 0.40-m f/5.9 Hypergraph + CCD. 170 Observatorio de Begues. Observer J. Manteca. 0.36-m f/6.3 Schmidt-Cassegrain + CCD. 213 Observatorio Montcabre. Observer R. Naves. Measurer M. Campas. 0.30-m f/10 Schmidt-Cassegrain + CCD. 215 Buchloe. Observer W. Hasubick. 0.44-m f/4.6 reflector + CCD. 232 Masquefa Observatory. Observer E. Reina. 0.25-m f/3.3 Schmidt-Cassegrain + CCD. 372 Geisei. Observer T. Seki. 0.60-m f/3.5 reflector. 445 Observatori d'Ontinyent. Observer M. Camarasa. 0.20-m f/7.2 Schmidt-Cassegrain + CCD. 467 Auckland Observatory. Observer C. H. Rowe. Measurer G. W. Christie. 0.35-m f/11 Schmidt-Cassegrain + CCD. 704 Lincoln Laboratory ETS, New Mexico. Observers M. Bezpalko, L. Manguso, D. Torres, R. Kracke, M. Blythe, H. Love, G. Spitz. Measurers J. Stuart, J. Kommers. 1.0-m f/2.15 reflector + CCD. 939 Observatorio Rodeno. Observer J. Castellano. 0.20-m f/10 Schmidt-Cassegrain + CCD. A18 Herne. Observer B. Brinkmann. 0.2-m f/5.8 Schmidt-Cassegrain + CCD. D88 Hiratsuka. Observer Y. Sugiyama. 0.25-m f/5.0 reflector + CCD. H06 New Mexico Skies Observatory. Observers M. Suzuki, E. Guido, G. Sostero. Measurers M. Suzuki, E. Guido. 0.25-m f/3.4 reflector + CCD. H45 Petit Jean Mountain South. Observer P. C. Sherrod. 0.41-m f/3.3 Schmidt-Cassegrain + CCD. J59 Observatorio Linceo, Santander. Observer J. Temprano. 0.25-m f/3.3 Schmidt-Cassegrain + CCD. Long. = 356.2039, rho cos phi' = 0.72693, rho sin phi' = +0.68441. J70 Obs. Astronomico Vega del Thader, El Palmar. Observer J. P. Navarro P. 0.20-m Schmidt-Cassegrain + CCD. J76 La Murta. Observers S. Pastor, J. A. Reyes. 0.40-m f/6.3 Schmidt-Cassegrain + CCD. J97 Alginet. Observer T. Climent. 0.25-m f/3.3 Schmidt-Cassegrain + CCD. Orbital elements: P/1889 M1 = 2006 M3 (Barnard) Epoch 1889 June 7.0 TT = JDT 2411160.5 T 1889 June 21.23288 TT MPC q 1.1029907 (2000.0) P Q n 0.00839832 Peri. 60.14265 +0.76304314 +0.38681779 a 23.9703620 Node 272.54480 -0.60491103 +0.70961600 e 0.9539852 Incl. 31.22035 +0.22770114 +0.58891182 P 117.36 Epoch 2006 Aug. 13.0 TT = JDT 2453960.5 T 2006 Aug. 28.68844 TT MPC q 1.1072152 (2000.0) P Q n 0.00823844 Peri. 60.46082 +0.76133892 +0.38998703 a 24.2794796 Node 272.06643 -0.60679227 +0.71001404 e 0.9543971 Incl. 31.21748 +0.22839920 +0.58633624 P 119.64 Residuals in seconds of arc 890624 662 (4.7+ 3.7+) 060625 423 0.8+ 0.1- 060630 H06 0.7+ 0.4- 890625 662 2.8+ 0.5- 060625 423 0.5+ 0.4- 060630 H06 0.2+ 0.1- 890625 045 (0.0 5.2-) 060625 213 1.0- 0.3- 060630 H06 0.0 0.1+ 890626 532 (0.1+ 12.2-) 060625 213 0.9- 0.3- 060630 H06 0.3- 0.4- 890626 045(15.5+ 8.4-) 060625 213 1.2- 0.1- 060630 H06 0.1- 0.5- 890626 522 0.5+ 0.4- 060625 A77 0.4- 0.0 060630 213 0.0 0.4- 890626 662 3.2+ 1.4+ 060625 A77 0.8- 0.4+ 060630 213 0.3- 0.3+ 890626 532 (4.1- 7.1+) 060625 A77 0.1- 0.5+ 060630 213 0.5- 0.4+ 890627 045 (0.1+ 10.2-) 060625 A77 1.0- 1.1+ 060630 232 0.2- 0.6- 890627 662 (8.7+ 0.5-) 060625 A77 0.7+ 0.3+ 060630 232 0.4- 0.1- 890628 020 0.2- 1.9+ 060625 130 0.5- 0.2+ 060630 232 0.1- 0.2+ 890628 437(10.4+ 2.1+) 060625 A77 0.9+ 0.4- 060630 215 0.1+ 0.2+ 890628 045 (8.3+ 3.3-) 060625 A77 0.4- 0.2+ 060630 215 0.1+ 0.3+ 890629 020 2.4- 0.0 060625 A77 1.3+ 1.2+ 060630 215 0.0 0.4+ 890630 662(10.7+ 1.4-) 060625 A77 (0.2- 2.1+) 060630 A18 0.6- 0.2+ 890701 662 (9.1+ 1.4+) 060625 130 0.6- 0.7+ 060630 J76 0.2+ 0.1+ 890702 662 (7.5+ 0.2+) 060626 104 0.5- 0.0 060630 J76 0.2+ 0.3+ 890703 662(14.9+ 2.6-) 060626 104 0.2+ 0.5+ 060630 J76 0.0 0.3+ 890704 522 (4.1- 4.2-) 060626 213 0.6- 0.4+ 060701 939 0.1+ 0.1- 890704 007 0.8+ 1.2+ 060626 213 0.5- 0.5+ 060701 939 0.4- 0.2- 890704 662(10.2+ 0.4-) 060626 213 0.2- 0.7+ 060701 939 0.4- 0.1- 890705 662 (8.6+ 1.5-) 060626 104 (2.6+ 0.5+) 060701 151 0.2- 0.4+ 890705 045(17.1+ 0.6+) 060626 104 1.2- 0.5+ 060701 151 0.4- 0.5+ 890706 767 3.1+ 0.1- 060627 423 0.1+ 0.1- 060701 151 0.4- 0.2+ 890706 662 (7.6+ 1.8-) 060627 423 0.0 0.1- 060701 151 0.4- 0.0 890708 662 (9.0+ 2.1+) 060627 423 0.5- 0.6- 060701 151 0.3- 0.4- 890710 662 (5.0+ 0.8+) 060627 D88 0.4- 0.8- 060701 A18 0.9- 0.8- 890711 662(14.0+ 5.8-) 060627 D88 0.1+ 0.7+ 060702 704 (1.4- 5.9-) 890801 662 (7.8+ 5.1+) 060627 423 0.6- 0.5- 060702 704 (2.3+ 0.9-) 890801 045 (4.4- 12.6-) 060627 D88 0.1+ 0.8+ 060702 704 (0.9+ 2.2-) 890807 662 (7.1+ 0.9+) 060627 349 0.0 0.1+ 060702 213 0.3+ 0.1+ 060623 704 0.7+ 0.0 060627 349 0.1- 0.3+ 060702 213 0.1+ 0.1+ 060623 704 0.1+ 1.1- 060627 349 0.4+ 0.1- 060702 213 0.1+ 0.1+ 060623 704 0.6+ 0.3- 060627 J95 0.1+ 0.3+ 060703 372 0.0 0.0 060623 J87 0.2+ 0.6- 060627 J95 0.2+ 0.8+ 060703 372 0.6- 0.2- 060623 J87 0.2+ 0.0 060627 J95 0.1+ 1.0+ 060703 372 1.0- 1.0+ 060623 J87 0.3+ 0.0 060628 850 1.4+ 0.5+ 060703 372 0.7- 1.3+ 060623 118 0.2- 0.8- 060628 850 0.3+ 0.4- 060703 372 0.5+ 0.1- 060623 118 0.3+ 0.3+ 060628 850 0.1- 0.7- 060703 170 0.2+ 0.0 060623 J87 0.3+ 0.3+ 060628 850 1.5- 0.7- 060703 170 0.1- 0.1+ 060623 118 0.2- 0.1+ 060628 372 1.4+ 0.7+ 060703 170 0.0 0.0 060623 118 0.1- 0.9- 060628 J97 0.5+ 0.6+ 060703 J97 0.8- 0.6+ 060623 118 0.3+ 0.5- 060628 J97 1.8+ 1.4- 060703 J97 0.4+ 0.6- 060623 176 0.3+ 0.2+ 060629 850 0.6+ 0.6+ 060703 J97 1.1+ 0.7+ 060623 176 0.1+ 0.2- 060629 850 0.9+ 0.1+ 060703 J97 0.3- 0.2- 060623 176 0.5- 0.1+ 060629 850 0.2+ 0.4+ 060703 213 0.4- 0.3+ 060623 204 0.1- 0.0 060629 850 0.1+ 0.2+ 060703 213 0.2- 0.3+ 060623 204 0.5+ 0.0 060629 850 0.1- 0.3+ 060703 046 0.3- 1.0+ 060623 204 0.3- 0.4- 060629 850 0.4- 0.3+ 060703 213 0.4- 0.2+ 060623 204 0.3+ 0.0 060629 850 1.2- 0.3+ 060703 046 0.0 0.9+ 060624 I77 0.1- 0.6- 060629 850 0.3+ 1.2- 060703 046 0.3- 0.4+ 060624 I77 0.4- 0.8- 060629 F84 0.3- 0.1- 060703 J70 (1.6- 2.1-) 060624 I77 0.1- 0.4- 060629 F84 0.9- 0.3- 060703 J70 (0.6+ 3.4+) 060624 734 0.0 0.1+ 060629 H06 0.6- 1.9- 060703 J70 (6.5+ 8.9+) 060624 734 0.2- 0.0 060629 H06 0.6+ 0.2+ 060703 J70 (5.3- 0.8+) 060624 734 0.0 0.1- 060629 F84 0.3- 0.5- 060704 J59 0.7- 0.7+ 060624 734 0.1- 0.0 060629 H06 0.4+ 0.7- 060704 J59 0.2- 0.5+ 060624 734 0.1+ 0.0 060629 H06 1.0+ 0.2+ 060705 467 0.1- 0.4+ 060624 704 0.1+ 0.1- 060629 D88 0.3- 1.6- 060705 467 0.1- 0.5+ 060624 704 0.1- 0.0 060629 D88 0.8+ 0.2- 060705 467 0.3- 0.2+ 060624 704 0.0 1.1- 060629 D88 0.4- 1.2- 060705 J97 1.1+ 0.6+ 060624 H06 1.4- 1.1+ 060629 379 0.4+ 0.6- 060705 J97 0.5- 1.0- 060624 H06 0.7+ 1.1+ 060629 379 0.2- 0.7- 060705 939 0.2+ 0.5- 060624 H06 0.1- 0.3+ 060629 379 0.7+ 0.3- 060705 939 0.2+ 0.1+ 060624 428 0.7- 1.7- 060629 379 0.8+ 0.7- 060705 939 0.3+ 0.4+ 060624 428 0.6- 1.0- 060629 379 0.1+ 0.0 060705 445 0.4+ 1.0- 060624 428 0.2- 0.8- 060629 J97 1.2+ 1.0+ 060705 445 0.4+ 1.8- 060625 H06 0.1+ 0.2+ 060629 J97 0.6+ 0.2+ 060705 445 1.3+ 1.5- 060625 H06 0.1+ 0.2- 060629 945 0.0 0.3- 060705 445 1.1+ 1.8- 060625 H06 (1.7+ 2.6+) 060630 945 0.1- 1.3+ 060707 H45 0.3+ 0.4- 060625 H06 0.3- 0.5- 060630 673 0.0 0.2+ 060707 H45 0.3+ 0.5- 060625 H06 0.5- 0.3- 060630 673 0.1+ 0.3+ 060707 H45 0.1+ 0.3- 060625 H06 0.4+ 0.4- 060630 673 0.4- 0.2+ 060707 H45 0.6+ 0.4- 060625 H06 0.1- 1.1- 060630 673 0.2- 0.4+ Ephemeris: P/1889 M1 = 2006 M3 (Barnard) Date TT R. A. (2000) Decl. Delta r Elong. Phase m1 m2 2006 07 04 17 26.58 -14 43.7 0.411 1.407 158.4 15.5 14.6 2006 07 09 17 18.76 -07 17.9 0.386 1.362 148.9 22.7 14.3 2006 07 14 17 11.52 +00 45.8 0.371 1.319 138.9 30.4 14.1 2006 07 19 17 05.14 +09 02.2 0.366 1.279 129.1 38.0 13.9 2006 07 24 16 59.86 +17 04.8 0.370 1.243 120.0 45.1 13.8 2006 07 29 16 55.86 +24 33.4 0.381 1.209 111.8 51.2 13.7 2006 08 03 16 53.23 +31 17.7 0.397 1.180 104.8 56.3 13.7 2006 08 08 16 51.97 +37 15.8 0.417 1.155 99.0 60.1 13.7 2006 08 13 16 52.07 +42 30.9 0.439 1.135 94.5 62.9 13.8 2006 08 18 16 53.52 +47 08.0 0.462 1.120 91.0 64.6 13.8 2006 08 23 16 56.39 +51 12.9 0.486 1.111 88.5 65.5 13.9 2006 08 28 17 00.82 +54 51.0 0.510 1.107 87.0 65.7 14.0 2006 09 02 17 07.04 +58 07.1 0.532 1.109 86.2 65.2 14.1 Brian G. Marsden (C) Copyright 2006 MPC M.P.E.C. 2006-N16
